Date String (YYYY-MM-DD hh:mm:ss) UTC,Instrument flags,Ambient pressure (hPa),Sample flow (lpm),Bypass flow (lpm),Sample temperature (°C),Ambient temperature (°C),ASC tube jacket temperature (°C),LED temperature (°C),Box temperature (°C),Sample RH (%),Span deviation,Mass concentration (μg/m³),Mass concentration (μg/m³),Mass concentration (μg/m³)
DateTimeUTC,F1_M11,P_M11,Q1_M11,Q2_M11,T1_M11,T2_M11,T3_M11,T4_M11,T5_M11,U1_M11,ZSPAN_M11,X0_M11,X2_M11,X1_M11
2023-01-26 11:00:00,,0829.4,5.00,0.00,22.0,21.4,00.0,30.8,23.7,05.0,0000.0,0001.63,0001.08,0000.94
2023-01-26 11:01:00,,0829.3,5.00,0.00,22.1,22.4,00.0,30.8,23.9,05.1,0000.0,0001.67,0001.11,0000.96
2023-01-26 11:02:00,,0829.3,5.02,0.00,22.2,23.0,00.0,30.8,24.1,05.1,0000.0,0001.59,0001.09,0000.97
2023-01-26 11:03:00,,0829.2,5.00,0.00,22.2,22.5,00.0,30.9,24.1,05.1,0000.0,0001.60,0001.10,0000.99
2023-01-26 11:04:00,,0829.3,5.03,0.00,22.2,21.8,00.0,30.9,23.9,05.0,0000.0,0001.59,0001.10,0001.00
2023-01-26 11:05:00,,0829.3,5.02,0.00,22.2,21.2,00.0,30.9,23.8,05.0,0000.0,0001.62,0001.12,0001.02
2023-01-26 11:06:00,,0829.3,5.02,0.00,22.1,20.9,00.0,30.9,23.7,05.0,0000.0,0001.67,0001.15,0001.04
2023-01-26 11:07:00,,0829.3,5.01,0.00,22.0,20.6,00.0,30.9,23.6,05.1,0000.0,0001.62,0001.18,0001.06
2023-01-26 11:08:00,,0829.3,5.00,0.00,22.0,20.4,00.0,30.9,23.5,05.0,0000.0,0001.66,0001.21,0001.07
2023-01-26 11:09:00,,0829.3,4.98,0.00,21.9,20.2,00.0,30.8,23.4,05.1,0000.0,0001.74,0001.25,0001.09
2023-01-26 11:10:00,,0829.4,5.04,0.00,21.9,20.2,00.0,30.8,23.4,05.1,0000.0,0002.22,0001.28,0001.11
2023-01-26 11:11:00,,0829.4,5.01,0.00,21.9,21.2,00.0,30.8,23.6,05.1,0000.0,0003.04,0001.28,0001.11
2023-01-26 11:12:00,,0829.5,5.00,0.00,22.0,22.1,00.0,30.8,23.8,05.1,0000.0,0002.96,0001.25,0001.10
2023-01-26 11:13:00,,0829.5,5.00,0.00,22.1,22.8,00.0,30.8,24.1,05.1,0000.0,0002.95,0001.25,0001.10
2023-01-26 11:14:00,,0829.5,4.98,0.00,22.2,22.6,00.0,30.9,24.1,05.0,0000.0,0002.94,0001.24,0001.10
2023-01-26 11:15:00,,0829.5,5.00,0.00,22.2,21.9,00.0,30.9,24.0,05.0,0000.0,0002.92,0001.23,0001.09
2023-01-26 11:16:00,,0829.5,5.01,0.00,22.2,21.3,00.0,30.9,23.8,05.0,0000.0,0002.92,0001.23,0001.08
2023-01-26 11:17:00,,0829.4,4.99,0.00,22.1,20.9,00.0,30.9,23.7,05.0,0000.0,0002.88,0001.21,0001.08
2023-01-26 11:18:00,,0829.5,4.98,0.00,22.0,20.5,00.0,30.9,23.6,05.1,0000.0,0002.84,0001.19,0001.08
2023-01-26 11:19:00,,0829.5,5.00,0.00,22.0,20.4,00.0,30.9,23.5,05.1,0000.0,0002.77,0001.17,0001.08
2023-01-26 11:20:00,,0829.5,5.00,0.00,21.9,20.2,00.0,30.8,23.4,05.1,0000.0,0002.70,0001.14,0001.06
2023-01-26 11:21:00,,0829.5,5.00,0.00,21.9,20.5,00.0,30.8,23.5,05.0,0000.0,0002.24,0001.11,0001.05
2023-01-26 11:22:00,,0829.5,5.02,0.00,22.0,21.5,00.0,30.8,23.7,05.0,0000.0,0001.36,0001.09,0001.04
2023-01-26 11:23:00,,0829.5,5.01,0.00,22.1,22.4,00.0,30.8,24.0,05.0,0000.0,0001.37,0001.09,0001.03
2023-01-26 11:24:00,,0829.5,4.99,0.00,22.2,22.9,00.0,30.8,24.1,04.9,0000.0,0001.36,0001.08,0001.02
2023-01-26 11:25:00,,0829.5,4.99,0.00,22.2,22.3,00.0,30.9,24.1,04.8,0000.0,0001.41,0001.08,0001.01
2023-01-26 11:26:00,,0829.5,4.99,0.00,22.2,21.6,00.0,30.9,24.0,04.8,0000.0,0001.43,0001.09,0001.01
2023-01-26 11:27:00,,0829.5,5.01,0.00,22.2,21.1,00.0,30.9,23.8,04.8,0000.0,0001.43,0001.08,0001.00
2023-01-26 11:28:00,,0829.5,5.02,0.00,22.1,20.7,00.0,30.9,23.7,04.8,0000.0,0001.48,0001.10,0000.99
2023-01-26 11:29:00,,0829.5,4.99,0.00,22.1,20.5,00.0,30.9,23.6,04.8,0000.0,0001.48,0001.09,0000.99
2023-01-26 11:30:00,,0829.5,5.01,0.00,22.0,20.3,00.0,30.9,23.5,04.8,0000.0,0001.49,0001.09,0000.98
2023-01-26 11:31:00,,0829.5,4.99,0.00,21.9,20.1,00.0,30.9,23.5,04.8,0000.0,0001.54,0001.12,0000.98
2023-01-26 11:32:00,,0829.5,5.00,0.00,21.9,20.8,00.0,30.8,23.5,04.8,0000.0,0001.58,0001.13,0000.97
2023-01-26 11:33:00,,0829.5,5.01,0.00,22.0,21.9,00.0,30.8,23.8,04.8,0000.0,0001.59,0001.13,0000.97
2023-01-26 11:34:00,,0829.5,5.00,0.00,22.1,22.7,00.0,30.8,24.0,04.7,0000.0,0001.59,0001.12,0000.97
2023-01-26 11:35:00,,0829.5,4.99,0.00,22.2,22.7,00.0,30.9,24.1,04.7,0000.0,0001.62,0001.12,0000.96
2023-01-26 11:36:00,,0829.4,5.01,0.00,22.2,22.1,00.0,30.9,24.1,04.7,0000.0,0001.58,0001.11,0000.96
2023-01-26 11:37:00,,0829.4,5.01,0.00,22.2,21.5,00.0,30.9,23.9,04.8,0000.0,0001.55,0001.10,0000.95
2023-01-26 11:38:00,,0829.5,5.00,0.00,22.2,21.0,00.0,30.9,23.8,04.7,0000.0,0001.50,0001.08,0000.94
2023-01-26 11:39:00,,0829.5,5.00,0.00,22.1,20.7,00.0,30.9,23.7,04.8,0000.0,0001.45,0001.05,0000.93
2023-01-26 11:40:00,,0829.5,4.99,0.00,22.0,20.4,00.0,30.9,23.6,04.8,0000.0,0001.48,0001.06,0000.93
2023-01-26 11:41:00,,0829.5,5.00,0.00,22.0,20.1,00.0,30.9,23.5,04.8,0000.0,0001.45,0001.05,0000.93
2023-01-26 11:42:00,,0829.5,5.02,0.00,21.9,19.9,00.0,30.8,23.4,04.8,0000.0,0001.43,0001.03,0000.93
2023-01-26 11:43:00,,0829.5,4.99,0.00,21.9,20.5,00.0,30.8,23.5,04.8,0000.0,0001.42,0001.02,0000.93
2023-01-26 11:44:00,,0829.4,4.99,0.00,22.0,21.6,00.0,30.8,23.8,04.8,0000.0,0001.44,0001.02,0000.93
2023-01-26 11:45:00,,0829.4,4.99,0.00,22.1,22.5,00.0,30.8,24.0,04.8,0000.0,0001.43,0001.03,0000.94
2023-01-26 11:46:00,,0829.3,4.98,0.00,22.2,22.2,00.0,30.8,24.0,04.8,0000.0,0001.39,0001.03,0000.95
2023-01-26 11:47:00,,0829.3,5.00,0.00,22.1,21.6,00.0,30.9,23.9,04.8,0000.0,0001.39,0001.03,0000.96
2023-01-26 11:48:00,,0829.2,5.01,0.00,22.1,21.0,00.0,30.9,23.7,04.8,0000.0,0001.43,0001.05,0000.97
2023-01-26 11:49:00,,0829.2,5.00,0.00,22.0,20.4,00.0,30.9,23.6,04.8,0000.0,0001.43,0001.06,0000.98
2023-01-26 11:50:00,,0829.2,5.00,0.00,22.0,20.0,00.0,30.8,23.4,04.8,0000.0,0001.42,0001.06,0000.99
2023-01-26 11:51:00,,0829.2,5.00,0.00,21.9,19.7,00.0,30.8,23.3,04.8,0000.0,0001.46,0001.08,0001.01
2023-01-26 11:52:00,,0829.2,5.01,0.00,21.8,20.1,00.0,30.8,23.4,04.9,0000.0,0001.55,0001.13,0001.01
2023-01-26 11:53:00,,0829.2,5.01,0.00,21.9,21.4,00.0,30.7,23.6,04.8,0000.0,0001.56,0001.14,0001.03
2023-01-26 11:54:00,,0829.2,5.00,0.00,22.0,22.4,00.0,30.7,23.9,04.8,0000.0,0001.54,0001.14,0001.04
2023-01-26 11:55:00,,0829.2,4.99,0.00,22.1,22.2,00.0,30.8,24.0,04.8,0000.0,0001.51,0001.14,0001.04
2023-01-26 11:56:00,,0829.3,5.00,0.00,22.1,21.6,00.0,30.8,23.9,04.8,0000.0,0001.51,0001.14,0001.05
2023-01-26 11:57:00,,0829.3,5.00,0.00,22.1,21.1,00.0,30.8,23.8,04.8,0000.0,0001.53,0001.15,0001.05
2023-01-26 11:58:00,,0829.3,5.00,0.00,22.0,20.8,00.0,30.8,23.7,04.8,0000.0,0001.52,0001.15,0001.05
2023-01-26 11:59:00,,0829.3,5.00,0.00,22.0,20.6,00.0,30.8,23.6,04.8,0000.0,0001.47,0001.13,0001.04
